STARLINK BJ

Last updated on Wed Apr 05 2023 00:02:05 GMT+0000 (Coordinated Universal Time)

1 56148U 23046BJ 23094.58334491 -.00913380 00000+0 -62239-2 0 9993 2 56148 42.9999 229.3438 0002054 269.8289 224.4239 15.76421644 1304

Satellite not in orbit